Regional Weather Roundup
Issued by NWS

Home | Current Version | Previous Version | Text Only | Print | Product List | Glossary Off
Versions: 1 2 3 4 5 6 7 8 9 10 11 12 13 14 15 16 17 18 19 20 21 22 23 24 25 26 27 28 29 30 31 32 33 34 35 36 37 38 39 40 41 42 43 44 45 46 47 48 49 50

000
ASUS43 KLSX 291759
RWRMO

WEATHER SUMMARY FOR MISSOURI
NATIONAL WEATHER SERVICE SPRINGFIELD MO
100 PM CDT TUE JUL 29 2014

NOTE: "FAIR" INDICATES FEW OR NO CLOUDS BELOW 12,000 FEET WITH NO
       SIGNIFICANT WEATHER AND/OR OBSTRUCTIONS TO VISIBILITY.
       CURRENT SKY AND/OR WEATHER CONDITIONS ARE NOT AVAILABLE FOR
       CHILLICOTHE AND FARMINGTON.

MOZ001>031-035>038-043-044-053-054-291900-
...NORTHERN AND WESTERN MISSOURI...

CITY           SKY/WX    TMP DP  RH WIND       PRES   REMARKS
KANSAS CTY INT PTSUNNY   80  60  50 NW6       30.18F
6HR MIN TEMP:  59; 6HR MAX TEMP:  80;

KANSAS C DTWN  SUNNY     81  54  39 NW7       30.16F
6HR MIN TEMP:  64; 6HR MAX TEMP:  82;

LEE`S SUMMIT   MOSUNNY   78  56  46 NW8       30.18F
6HR MIN TEMP:  60; 6HR MAX TEMP:  81;

ST JOSEPH      PTSUNNY   77  59  53 N3        30.18F
6HR MIN TEMP:  55; 6HR MAX TEMP:  78;

KIRKSVILLE     MOSUNNY   78  54  43 VRB5      30.17F
6HR MIN TEMP:  56; 6HR MAX TEMP:  78;


$$
MOZ066>068-077>081-088>096-101>105-291900-
...SOUTHWEST MISSOURI...

CITY           SKY/WX    TMP DP  RH WIND       PRES   REMARKS
SPRINGFIELD    PTSUNNY   80  54  40 N8        30.17F
6HR MIN TEMP:  59; 6HR MAX TEMP:  82;

JOPLIN         MOSUNNY   82  55  39 VRB6      30.17F
6HR MIN TEMP:  59; 6HR MAX TEMP:  82;


$$
MOZ032>034-039>042-045>050-055>058-069>072-291900-
...CENTRAL MISSOURI...

CITY           SKY/WX    TMP DP  RH WIND       PRES   REMARKS
COLUMBIA       MOSUNNY   77  55  46 W8        30.17F
6HR MIN TEMP:  59; 6HR MAX TEMP:  79;

JEFFERSON CITY MOSUNNY   79  56  45 NW8       30.15F
6HR MIN TEMP:  57; 6HR MAX TEMP:  79;

ROLLA          PTSUNNY   78  53  41 NW7       30.15F
6HR MIN TEMP:  56; 6HR MAX TEMP:  78;

SEDALIA        PTSUNNY   79  58  48 VRB5      30.17F
6HR MIN TEMP:  59; 6HR MAX TEMP:  80;

OSAGE BEACH    PTSUNNY   79  54  41 NW5       30.17S

$$
MOZ051-052-059>065-291900-
...EAST CENTRAL MISSOURI...

CITY           SKY/WX    TMP DP  RH WIND       PRES   REMARKS
ST LOUIS INTL  PTSUNNY   77  54  44 VRB6      30.15F
6HR MIN TEMP:  62; 6HR MAX TEMP:  80;

SPIRIT OF STL  MOSUNNY   77  53  43 VRB3      30.13F
6HR MIN TEMP:  54; 6HR MAX TEMP:  79;

ST CHARLES     SUNNY     77  55  46 NW6       30.13F
6HR MIN TEMP:  54; 6HR MAX TEMP:  77;


$$
MOZ072>076-082>087-097>100-106>115-291900-
...SOUTH CENTRAL AND SOUTHEAST MISSOURI...

CITY           SKY/WX    TMP DP  RH WIND       PRES   REMARKS
CAPE GIRARDEAU PTSUNNY   76  51  41 CALM      30.14F
6HR MIN TEMP:  58; 6HR MAX TEMP:  77;

FARMINGTON     PTSUNNY   73  48  40 CALM      30.18S
6HR MIN TEMP:  54; 6HR MAX TEMP:  75;

POPLAR BLUFF   SUNNY     76  52  43 E9        30.14F
6HR MIN TEMP:  61; 6HR MAX TEMP:  77;

WEST PLAINS    PTSUNNY   79  54  41 N8        30.18F
6HR MIN TEMP:  57; 6HR MAX TEMP:  80;


$$



USA.gov is the U.S. government's official web portal to all federal, state and local government web resources and services.